Simultaneous Nadir Overpasses (SNOs) Predictions

Prediction of SNOs between AQUA and METOP-A Satellite Orbit:

Table of predicted SNOs for the next 14.0 days since TLE Epoch: 8/11/2016
Index Date (AQUA) Time (AQUA) Lat,Lon (AQUA) SZA (AQUA ) Date (METOP-A) Time (METOP-A) Lat,Lon (METOP-A) SZA (METOP-A ) Distance(km) Time Diff (sec)
1 08/12/2016 03:45:56 73.83, 117.70 59.02 08/12/2016 03:44:58 73.82, 117.61 59.03 2.68 58
2 08/12/2016 04:35:24 -73.94, -74.90 120.85 08/12/2016 04:35:38 -73.93, -74.80 120.86 3.16 14
3 08/12/2016 05:25:00 74.39, 91.68 59.66 08/12/2016 05:26:08 74.39, 93.69 59.57 60.15 68
4 08/14/2016 23:20:11 73.86,-175.93 59.92 08/14/2016 23:19:18 73.87,-175.86 59.94 2.90 53
5 08/15/2016 00:09:38 -73.91, -8.41 120.02 08/15/2016 00:09:59 -73.93, -8.39 120.00 2.42 21
6 08/15/2016 00:59:19 74.63, 157.54 60.78 08/15/2016 01:00:24 74.64, 160.74 60.66 94.38 65
7 08/17/2016 18:54:25 73.85,-109.47 60.80 08/17/2016 18:53:39 73.87,-109.45 60.83 2.69 46
8 08/17/2016 19:43:53 -73.95, 57.94 119.09 08/17/2016 19:44:20 -73.93, 58.02 119.11 3.16 27
9 08/20/2016 14:28:39 73.85, -43.04 61.71 08/20/2016 14:28:00 73.87, -43.04 61.74 2.15 39
10 08/20/2016 15:18:07 -73.95, 124.39 118.18 08/20/2016 15:18:41 -73.93, 124.43 118.20 2.35 34
11 08/23/2016 10:02:52 73.86, 23.38 62.67 08/23/2016 10:02:20 73.86, 23.36 62.68 0.68 32
12 08/23/2016 10:52:20 -73.96,-169.19 117.22 08/23/2016 10:53:01 -73.92,-169.17 117.26 3.57 41




NCC Satellite Simultaneous Nadir Overpasses (SNOs) Prediction Service
